Weather in Bolshaya Griva

Russia / Tomsk District     58°55′31″N   80°14′18″E
temp.,
°C
wind,
m/s
gust,
m/s
humid.,
%
clouds,
%
prec.,
mm/h
press.,
hPa
HPBL,
m
7 march, sun
sun701:00−4wnw51095100 2.4 999905
04:00−9wsw41293100 0.2 1000546
07:00−10wsw51292100 0.3 1004587
10:00−10wsw51291100 0.1 1005687
13:00−8wsw5989100 0.2 1008829
16:00−7wsw4890100 0.3 1010873
19:00−8wsw3893100 0.4 1013487
22:00−13sw239547 0.0 101444
8 march, mon
mon801:00−14s239671 0.0 101553
04:00−12se3795100 0.0 1012229
07:00−10ese51294100 0.6 1007535
10:00−8se61394100 3.0 1000771
13:000s71396100 5.1 9951123
16:000ssw71491100 0.3 9921176
19:00−7w61386100 1.7 995965
22:00−10w51289100 0.1 1001872
9 march, tue
tue901:00−12w51392100 0.1 1006547
04:00−15wsw3109596 0.0 1009265
07:00−15sw279698 0.0 1011247
10:00−11sw4991100 0.1 1012665
13:00−10ssw4890100 0.2 1012708
16:00−9ssw5988100 0.1 1012780
19:00−9sw4992100 0.5 1012882
22:00−12ssw3109490 0.0 1013342
10 march, wed
wed1001:00−13s399581 0.1 1013252
04:00−12s3995100 0.0 1012298
07:00−11s41194100 0.1 1009444
10:00−9ssw51292100 0.3 1007572
13:00−6ssw51093100 0.8 1006748
16:00−6ssw4891100 0.3 1005728
19:00−6ssw2696100 0.6 1003342
22:00−7sse2497100 0.4 1001179
11 march, thu
thu1101:00−7sse1297100 1.4 99870
04:00−8n2397100 0.8 994121
07:00−8nnw3696100 1.9 995300
10:00−10wnw3595100 0.4 998270
13:00−10wnw2495100 0.7 1000302
16:00−10nnw2394100 0.5 1002303
19:00−16nnw3696100 1.3 1004270
22:00−19wnw3696100 0.8 1007322